Weather Roundup
Issued by NWS

Home | Current Version | Previous Version | Graphics & Text | Print | Product List | Glossary Off
Versions: 1 2 3 4 5 6 7 8 9 10 11 12 13 14 15 16 17 18 19 20 21 22 23 24 25 26 27 28 29 30 31 32 33 34 35 36 37 38 39 40 41 42 43 44 45 46 47 48 49 50

000
NZUS93 KARX 210510
HRRWXR

CURRENT HOURLY OBSERVATIONS ACROSS
MUCH OF THE UPPER MISSISSIPPI VALLEY
NATIONAL WEATHER SERVICE LA CROSSE WI
1200 AM CDT TUE APR 21 2015


...SOUTHEAST MINNESOTA...


CITY           SKY/WX    TMP DP  RH WIND       PRES   REMARKS
ROCHESTER      CLOUDY    36  31  82 W22       29.55S WCI  25
ROCHESTER/MAYO CLOUDY    37  32  80 W25G35    29.53F WCI  26
WINONA         PTCLDY    37  32  81 W14G22      N/A  WCI  29
AUSTIN         PTCLDY    37  28  70 W18G25    29.58F WCI  27
ALBERT LEA     CLOUDY    37  30  75 NW14G21   29.60S WCI  29
DODGE CENTER   MOCLDY    37  34  87 W17G25    29.55S WCI  28
PRESTON        MOCLDY    35  31  86 W20G28    29.56F WCI  24
OWATONNA       MOCLDY    37  30  75 W20       29.58S WCI  27
FARIBAULT      CLOUDY    37  32  81 W15G21    29.57S WCI  28
$$

...ELSEWHERE IN MINNESOTA...


CITY           SKY/WX    TMP DP  RH WIND       PRES   REMARKS
MINNEAPOLIS    CLOUDY    37  29  72 W17       29.54S WCI  27
INTNL FALLS    LGT SNOW  32  30  92 NW13      29.37R FOG     WCI  22
DULUTH         LGT SNOW  33  28  81 NW15G25   29.34F WCI  23
RED WING       LGT RAIN  37  34  87 NW12G17   29.52S WCI  30
REDWOOD FALLS  CLOUDY    39  31  72 NW15G24   29.63S WCI  31
MANKATO        CLOUDY    37  28  70 NW18G25   29.61R WCI  27
WORTHINGTON    CLEAR     36  23  60 W14       29.69S WCI  27
FAIRMONT       PTCLDY    37  23  56 W16       29.64S WCI  28
$$

...SOUTHWEST WISCONSIN...


CITY           SKY/WX    TMP DP  RH WIND       PRES   REMARKS
LA CROSSE      CLOUDY    41  32  70 W17G24    29.53S
PRAIRIE DU CHI MOCLDY    41  29  63 W10G18    29.59S
BOSCOBEL       CLOUDY    42  30  62 W14G22    29.57F
LONE ROCK      MOCLDY    40  32  73 W12G18    29.54F WCI  33
PLATTEVILLE    PTCLDY    39  32  76 SW12G18   29.59S WCI  32
FORT MC COY    DRIZZLE   39  31  72 W10G18    29.51S WCI  32
CAMP DOUGLAS   MOCLDY    39  36  87 W18G24    29.48S WCI  30
VIROQUA        CLOUDY    37  32  81 W16G24    29.52F WCI  28
WIS DELLS      MOCLDY    38  29  69 W14G21    29.50F WCI  30
$$

...ELSEWHERE IN WISCONSIN...


CITY           SKY/WX    TMP DP  RH WIND       PRES   REMARKS
MILWAUKEE      CLOUDY    44  26  49 W15       29.54S
MADISON        CLOUDY    41  31  67 W10G17    29.54R
GREEN BAY      CLOUDY    41  30  65 W15       29.44S
EAU CLAIRE     CLOUDY    36  30  79 W13       29.46F WCI  27
BLACK RVR FLS  CLOUDY    39  28  63 W9        29.49S WCI  33
MEDFORD        FLURRIES  33  30  90 W8        29.41R WCI  26
WAUSAU         CLOUDY    36  28  73 W17       29.39F WCI  26
WIS RAPIDS     LGT RAIN  38  28  67 W13       29.46F WCI  30
MARSHFIELD     CLOUDY    36  30  79 W15       29.43S WCI  27
RICE LAKE      FLURRIES  34  32  90 W9        29.46S WCI  27
$$

...NORTHEAST IOWA...


CITY           SKY/WX    TMP DP  RH WIND       PRES   REMARKS
DECORAH        CLOUDY    37  30  75 W10G17    29.57S WCI  30
MASON CITY     PTCLDY    36  29  75 W14       29.65S WCI  27
CHARLES CITY   MOCLDY    39  32  75 W16       29.62S WCI  30
OELWEIN        PTCLDY    37  30  75 W15       29.63S WCI  28
$$

...ELSEWHERE IN IOWA...


CITY           SKY/WX    TMP DP  RH WIND       PRES   REMARKS
DES MOINES     CLEAR     41  21  44 W8        29.73S
IOWA CITY      MOCLDY    39  33  79 W5        29.70F
FORT DODGE     CLEAR     37  28  70 W3        29.71S
$$

...NORTHERN ILLINOIS...


CITY           SKY/WX    TMP DP  RH WIND       PRES   REMARKS
CHICAGO-OHARE  PTCLDY    42  33  70 W14       29.61S
CHICAGO-MIDWAY LGT RAIN  44  35  70 SW12      29.63S
MOLINE         CLEAR     39  33  79 W5        29.69R
ROCKFORD       PTCLDY    42  31  64 W12       29.62F
PEORIA         CLEAR     46  31  55 SW12      29.70S
$$

NOTE: "FAIR" INDICATES FEW OR NO CLOUDS BELOW 12,000 FEET WITH NO
SIGNIFICANT WEATHER AND/OR OBSTRUCTIONS TO VISIBILITY. WIND
SPEEDS ARE IN MILES-PER-HOUR.



USA.gov is the U.S. government's official web portal to all federal, state and local government web resources and services.